Hourly Weather Bolshie Lupyazhi

Today, 27 July, Tuesday

Time Temperature Precipitation Wind Pressure Humidity
00:00 +20°C° 0 mm 1 mps 756 mmHg 59%
01:00 +20°C° 0 mm 1 mps 756 mmHg 59%
02:00 +20°C° 0 mm 1 mps 756 mmHg 59%
03:00 +19°C° 0 mm 2 mps 757 mmHg 59%
04:00 +20°C° 0 mm 1 mps 756 mmHg 60%
05:00 +20°C° 0 mm 1 mps 756 mmHg 60%
06:00 +20°C° 0 mm 1 mps 756 mmHg 61%
07:00 +22°C° 0 mm 1 mps 756 mmHg 56%
08:00 +24°C° 0 mm 1 mps 756 mmHg 50%
09:00 +26°C° 0 mm 1 mps 756 mmHg 44%
10:00 +28°C° 0 mm 1 mps 756 mmHg 40%
11:00 +29°C° 0 mm 2 mps 756 mmHg 36%
12:00 +30°C° 0 mm 2 mps 756 mmHg 32%
13:00 +30°C° 0 mm 2 mps 755 mmHg 32%
14:00 +30°C° 0 mm 2 mps 755 mmHg 32%
15:00 +30°C° 0 mm 2 mps 755 mmHg 32%
16:00 +29°C° 0 mm 3 mps 754 mmHg 39%
17:00 +27°C° 0 mm 3 mps 754 mmHg 46%
18:00 +25°C° 0 mm 4 mps 754 mmHg 53%
19:00 +22°C° 0 mm 3 mps 754 mmHg 59%
20:00 +20°C° 0 mm 3 mps 754 mmHg 65%
21:00 +18°C° 0 mm 2 mps 754 mmHg 71%
22:00 +17°C° 0 mm 2 mps 754 mmHg 74%
23:00 +18°C° 0 mm 1 mps 754 mmHg 77%

Tomorrow, 28 July, Wednesday

Time Temperature Precipitation Wind Pressure Humidity
00:00 +16°C° 0 mm 1 mps 754 mmHg 80%
01:00 +16°C° 0 mm 1 mps 754 mmHg 83%
02:00 +16°C° 0 mm 1 mps 754 mmHg 85%
03:00 +16°C° 0 mm 2 mps 754 mmHg 87%
04:00 +18°C° 0 mm 1 mps 753 mmHg 85%
05:00 +18°C° 0 mm 1 mps 753 mmHg 84%
06:00 +17°C° 0 mm 0 mps 753 mmHg 82%
07:00 +21°C° 0 mm 1 mps 753 mmHg 73%
08:00 +24°C° 0 mm 1 mps 753 mmHg 65%
09:00 +26°C° 0 mm 2 mps 753 mmHg 56%
10:00 +27°C° 0 mm 2 mps 753 mmHg 50%
11:00 +29°C° 0 mm 2 mps 752 mmHg 45%
12:00 +30°C° 0 mm 2 mps 752 mmHg 40%
13:00 +30°C° 0 mm 2 mps 752 mmHg 40%
14:00 +30°C° 0 mm 2 mps 751 mmHg 40%
15:00 +30°C° 0 mm 2 mps 751 mmHg 41%
16:00 +27°C° 0.6 mm 3 mps 751 mmHg 54%
17:00 +25°C° 0.6 mm 3 mps 751 mmHg 66%
18:00 +21°C° 0.6 mm 3 mps 751 mmHg 79%
19:00 +20°C° 0 mm 3 mps 751 mmHg 81%
20:00 +20°C° 0 mm 2 mps 750 mmHg 82%
21:00 +19°C° 0 mm 2 mps 750 mmHg 83%
22:00 +19°C° 0.1 mm 2 mps 750 mmHg 84%
23:00 +19°C° 0.1 mm 2 mps 749 mmHg 85%

Day after tomorrow, 29 July, Thursday

Time Temperature Precipitation Wind Pressure Humidity
00:00 +19°C° 0.1 mm 2 mps 749 mmHg 87%
01:00 +19°C° 0 mm 3 mps 748 mmHg 86%
02:00 +19°C° 0 mm 3 mps 748 mmHg 86%
03:00 +19°C° 0 mm 3 mps 747 mmHg 86%
04:00 +19°C° 0.3 mm 3 mps 747 mmHg 87%
05:00 +19°C° 0.3 mm 4 mps 746 mmHg 89%
06:00 +18°C° 0.3 mm 4 mps 746 mmHg 90%
07:00 +19°C° 0 mm 4 mps 746 mmHg 89%
08:00 +20°C° 0 mm 4 mps 745 mmHg 89%
09:00 +20°C° 0 mm 4 mps 745 mmHg 89%
10:00 +21°C° 0 mm 4 mps 745 mmHg 85%
11:00 +22°C° 0 mm 4 mps 745 mmHg 82%
12:00 +22°C° 0 mm 4 mps 745 mmHg 79%
13:00 +25°C° 0.1 mm 4 mps 745 mmHg 73%
14:00 +26°C° 0.1 mm 4 mps 745 mmHg 67%
15:00 +27°C° 0.1 mm 4 mps 745 mmHg 61%
16:00 +27°C° 0.1 mm 4 mps 745 mmHg 62%
17:00 +27°C° 0.1 mm 4 mps 745 mmHg 63%
18:00 +26°C° 0.1 mm 3 mps 745 mmHg 65%
19:00 +25°C° 0 mm 3 mps 745 mmHg 69%
20:00 +24°C° 0 mm 2 mps 745 mmHg 73%
21:00 +23°C° 0 mm 2 mps 745 mmHg 78%
22:00 +21°C° 0 mm 2 mps 745 mmHg 78%
23:00 +21°C° 0 mm 2 mps 745 mmHg 78%

30 July, Friday

Time Temperature Precipitation Wind Pressure Humidity
00:00 +20°C° 0 mm 2 mps 745 mmHg 78%
01:00 +20°C° 0 mm 2 mps 745 mmHg 78%
02:00 +20°C° 0 mm 2 mps 745 mmHg 78%
03:00 +20°C° 0 mm 2 mps 745 mmHg 78%
04:00 +20°C° 0 mm 2 mps 745 mmHg 79%
05:00 +20°C° 0 mm 2 mps 745 mmHg 80%
06:00 +21°C° 0 mm 1 mps 746 mmHg 81%
07:00 +23°C° 0 mm 1 mps 746 mmHg 72%
08:00 +25°C° 0 mm 2 mps 746 mmHg 64%
09:00 +27°C° 0 mm 2 mps 746 mmHg 55%
10:00 +28°C° 0 mm 2 mps 746 mmHg 50%
11:00 +30°C° 0 mm 2 mps 746 mmHg 44%
12:00 +31°C° 0 mm 3 mps 746 mmHg 39%
13:00 +31°C° 0 mm 3 mps 746 mmHg 40%
14:00 +31°C° 0 mm 3 mps 745 mmHg 41%
15:00 +31°C° 0 mm 3 mps 745 mmHg 42%
16:00 +30°C° 0 mm 3 mps 745 mmHg 46%
17:00 +29°C° 0 mm 2 mps 745 mmHg 50%
18:00 +28°C° 0 mm 2 mps 745 mmHg 54%
19:00 +27°C° 0 mm 2 mps 745 mmHg 57%
20:00 +26°C° 0 mm 2 mps 745 mmHg 59%
21:00 +25°C° 0 mm 2 mps 746 mmHg 62%
22:00 +25°C° 0 mm 2 mps 746 mmHg 63%
23:00 +24°C° 0 mm 2 mps 746 mmHg 65%

31 July, Saturday

Time Temperature Precipitation Wind Pressure Humidity
00:00 +23°C° 0 mm 2 mps 746 mmHg 66%
01:00 +23°C° 0 mm 2 mps 746 mmHg 68%
02:00 +21°C° 0 mm 2 mps 746 mmHg 71%
03:00 +21°C° 0 mm 2 mps 746 mmHg 73%
04:00 +21°C° 0 mm 2 mps 746 mmHg 74%
05:00 +20°C° 0 mm 2 mps 746 mmHg 74%
06:00 +20°C° 0 mm 2 mps 746 mmHg 75%
07:00 +23°C° 0 mm 2 mps 746 mmHg 65%
08:00 +25°C° 0 mm 3 mps 746 mmHg 55%
09:00 +27°C° 0 mm 3 mps 746 mmHg 45%
10:00 +29°C° 0 mm 4 mps 746 mmHg 40%
11:00 +30°C° 0 mm 4 mps 746 mmHg 36%
12:00 +33°C° 0 mm 5 mps 746 mmHg 31%
13:00 +33°C° 0 mm 5 mps 746 mmHg 31%
14:00 +33°C° 0 mm 5 mps 746 mmHg 31%
15:00 +34°C° 0 mm 5 mps 745 mmHg 30%
16:00 +33°C° 0 mm 5 mps 745 mmHg 34%
17:00 +32°C° 0 mm 4 mps 746 mmHg 37%
18:00 +32°C° 0 mm 4 mps 746 mmHg 41%
19:00 +29°C° 0 mm 3 mps 746 mmHg 47%
20:00 +27°C° 0 mm 3 mps 746 mmHg 53%
21:00 +25°C° 0 mm 2 mps 746 mmHg 59%
22:00 +24°C° 0 mm 2 mps 746 mmHg 62%
23:00 +23°C° 0 mm 2 mps 746 mmHg 65%

1 August, Sunday

Time Temperature Precipitation Wind Pressure Humidity
00:00 +23°C° 0 mm 2 mps 746 mmHg 69%
01:00 +21°C° 0 mm 2 mps 747 mmHg 71%
02:00 +21°C° 0 mm 2 mps 747 mmHg 72%
03:00 +20°C° 0 mm 2 mps 747 mmHg 74%
04:00 +20°C° 0 mm 2 mps 747 mmHg 73%
05:00 +21°C° 0 mm 2 mps 747 mmHg 71%
06:00 +21°C° 0 mm 2 mps 746 mmHg 70%
07:00 +24°C° 0 mm 2 mps 746 mmHg 63%
08:00 +26°C° 0 mm 3 mps 746 mmHg 55%
09:00 +28°C° 0 mm 4 mps 745 mmHg 47%
10:00 +30°C° 0 mm 5 mps 745 mmHg 42%
11:00 +33°C° 0 mm 6 mps 744 mmHg 36%
12:00 +35°C° 0 mm 7 mps 744 mmHg 30%
13:00 +34°C° 0.1 mm 6 mps 744 mmHg 35%
14:00 +32°C° 0.1 mm 6 mps 744 mmHg 41%
15:00 +30°C° 0.1 mm 5 mps 743 mmHg 47%
16:00 +30°C° 0.1 mm 5 mps 743 mmHg 50%
17:00 +30°C° 0.1 mm 5 mps 744 mmHg 52%
18:00 +29°C° 0.1 mm 5 mps 744 mmHg 55%
19:00 +27°C° 0 mm 4 mps 744 mmHg 61%
20:00 +26°C° 0 mm 3 mps 745 mmHg 67%
21:00 +24°C° 0 mm 2 mps 745 mmHg 73%
22:00 +23°C° 0 mm 2 mps 746 mmHg 78%
23:00 +20°C° 0 mm 2 mps 746 mmHg 83%
Show more

We Need Your Consent

Meteoprog and our Service Providers may store and access personal data such as cookies, device identifiers or other similar technologies on your device and process such data to personalise content and ads, as well as provide social media features and to analyse the traffic.

  • Store and/or access information on your device

    Cookies, device identifiers or other information can be stored or accessed on your device for the purposes indicated above.

  • Personalised ads and content, ad and content measurement, audience insights, and products development

    Ads and content can be personalised based on a profile. More data can be added to better personalise ads and content. Ad and content performance can be measured. Insights about the audience who saw the ads and content can be derived. Such data can be used to develop or improve user’s experience, systems and software.

By clicking ‘I Agree’ you will allow the use of indicated cookies, device identifiers, web beacons or other similar technologies. Your settings can be changed in the browser on your device.

For certain purposes, legitimate interests may be relied on, rather than consent. You can read more about this in our Privacy and Cookie Policy.